Location: Härggis
(46.9540°N, 8.4897°E)
Time: 21:13:31
(UTC+00:00)

Cosmos 2278 Rocket - Pass Details

Date: 27 May 2022
Orbit: 840 x 846 km, 71.0° (Epoch: 02 July)

Event Time Altitude Azimuth Distance (km) Brightness Sun altitude
Rises 01:22:42 0° 320° (NW) 3,416 5.6 -16.6°
Reaches altitude 10° 01:25:53 10° 302° (WNW) 2,475 4.7 -16.4°
Maximum altitude 01:29:35 18° 261° (W) 1,956 3.7 -16.1°
Enters shadow 01:30:33 17° 248° (WSW) 1,993 3.7 -16.0°
